Home   Weather   Gdańsk   Past weeks

Flag for Poland Past Weather in Gdańsk, Poland — Yesterday and Last 2 Weeks

Now
59 °F

Passing clouds.


Feels Like: 58 °F
Forecast: 60 / 69 °F
Wind: 6 mph from Northeast

Location: Gdansk-Rebiechowo

Current Time: Jul 23, 2017 at 5:00:18 am

Latest Report: Jul 23, 2017 at 4:30 am


Visibility: N/A

Pressure: 30.01 "Hg

Humidity: 88%

Dew Point: 55 °F

Location of GdańskLocation

Past Weather in Gdańsk — Graph

°F

Gdańsk Temperature Yesterday

Maximum temperature yesterday: 70 °F (at 3:00 pm)
Minimum temperature yesterday: 57 °F (at 12:00 am)
Average temperature yesterday: 62 °F

High & Low Weather Summary for the Past Weeks

 TemperatureHumidityPressure
High73 °F (Jul 12, 3:00 pm)100% (Jul 9, 4:30 am)30.15 "Hg (Jul 9, 4:30 am)
Low45 °F (Jul 15, 5:00 am)40% (Jul 16, 2:00 pm)29.65 "Hg (Jul 10, 11:00 pm)
Average61 °F79%29.95 "Hg
* Reported Jul 8 3:00 am — Jul 23 3:30 am, Gdańsk. Weather by CustomWeather, © 2017

Note: Actual official high and low records may vary slightly from our data, if they occured in-between our weather recording intervals... More about our weather records

Advertising

Gdańsk Weather History for the Previous 24 Hours

Scroll right to see more
 ConditionsComfort  
Time TempWeatherWind HumidityBarometerVisibility
3:30 am
Sun, Jul 23
59 °FPassing clouds.6 mph94%30.04 "HgN/A
3:00 am59 °FPassing clouds.5 mph94%30.04 "HgN/A
2:30 am59 °FPassing clouds.7 mph94%30.04 "HgN/A
2:00 am59 °FPassing clouds.6 mph88%30.04 "HgN/A
1:30 am59 °FPassing clouds.5 mph94%30.04 "HgN/A
1:00 am59 °FClear.8 mph94%30.04 "Hg10 mi
12:30 am59 °FClear.10 mph94%30.04 "Hg10 mi
12:00 am59 °FClear.9 mph88%30.07 "Hg10 mi
11:30 pm
Sat, Jul 22
59 °FClear.8 mph88%30.07 "Hg10 mi
11:00 pm61 °FPassing clouds.8 mph83%30.07 "HgN/A
10:30 pm61 °FClear.10 mph88%30.07 "Hg10 mi
10:00 pm61 °FClear.13 mph88%30.07 "Hg10 mi
9:30 pm61 °FClear.13 mph88%30.07 "Hg10 mi
9:00 pm61 °FPassing clouds.13 mph88%30.07 "HgN/A
8:30 pm61 °FScattered clouds.12 mph83%30.07 "HgN/A
8:00 pm63 °FPartly sunny.13 mph77%30.07 "HgN/A
7:30 pm63 °FPartly sunny.12 mph77%30.07 "HgN/A
7:00 pm64 °FPartly sunny.13 mph73%30.07 "HgN/A
6:30 pm64 °FScattered clouds.14 mph68%30.07 "HgN/A
6:00 pm66 °FSunny.14 mph64%30.04 "Hg10 mi
5:30 pm66 °FSunny.13 mph64%30.07 "Hg10 mi
5:00 pm66 °FSunny.15 mph64%30.07 "Hg10 mi
4:30 pm68 °FSunny.15 mph60%30.07 "Hg10 mi
4:00 pm68 °FPassing clouds.13 mph60%30.07 "HgN/A
3:30 pm68 °FPassing clouds.14 mph60%30.07 "HgN/A
3:00 pm70 °FPassing clouds.13 mph60%30.07 "HgN/A
2:30 pm68 °FScattered clouds.14 mph60%30.07 "HgN/A
2:00 pm68 °FScattered clouds.12 mph60%30.07 "HgN/A
1:30 pm66 °FPassing clouds.13 mph68%30.07 "HgN/A
1:00 pm66 °FPassing clouds.12 mph64%30.07 "HgN/A
12:30 pm68 °FPassing clouds.12 mph64%30.07 "HgN/A
12:00 pm66 °FPassing clouds.13 mph64%30.07 "HgN/A
11:30 am66 °FPassing clouds.9 mph64%30.07 "HgN/A
11:00 am66 °FPassing clouds.8 mph73%30.07 "HgN/A
10:30 am64 °FPassing clouds.7 mph73%30.07 "HgN/A
10:00 am64 °FPassing clouds.10 mph78%30.07 "HgN/A
9:00 am63 °FScattered clouds.12 mph77%30.04 "HgN/A
8:30 am63 °FPassing clouds.8 mph77%30.07 "HgN/A
8:00 am63 °FPassing clouds.9 mph77%30.04 "HgN/A
7:30 am61 °FSunny.8 mph83%30.04 "Hg10 mi
6:30 am61 °FPassing clouds.5 mph83%30.04 "HgN/A
6:00 am59 °FSunny.3 mph88%30.04 "Hg10 mi
5:30 am57 °FSunny.2 mph94%30.04 "Hg10 mi
5:00 am57 °FSunny.2 mph94%30.01 "Hg10 mi
Weather by CustomWeather, © 2017

See weather overviewHow to use our weather pages